BEIDOU M3-S

Last updated on Tue Apr 02 2019 03:15:24 GMT+0000 (Coordinated Universal Time)

1 41315U 16006A 19091.73971438 .00000018 00000-0 00000+0 0 9997 2 41315 55.1171 151.5685 0003666 251.8985 52.4221 1.86231970 21541

Satellite not in orbit

BEIDOU M3-S